| time (UTC) | temp C | wind direction | speed KPH | gust KPH | rain 1hr cm | rain 24hr cm | rain mn cm | humidity % | barometer mb |
| 20260504215159 | 26 | 59 | 4.8 | 6.4 | 0.00 | 0.00 | 0.00 | 22 | 1007.3 |
| 20260504214654 | 25 | 150 | 1.6 | 9.7 | 0.00 | 0.00 | 0.00 | 23 | 1007.2 |
| 20260504214151 | 25 | 84 | 3.2 | 11.3 | 0.00 | 0.00 | 0.00 | 23 | 1007.5 |
| 20260504213648 | 26 | 136 | 4.8 | 6.4 | 0.00 | 0.00 | 0.00 | 23 | 1007.4 |
| 20260504213145 | 26 | 161 | 1.6 | 11.3 | 0.00 | 0.00 | 0.00 | 24 | 1007.6 |
| 20260504212641 | 25 | 174 | 1.6 | 11.3 | 0.00 | 0.00 | 0.00 | 24 | 1007.8 |
| 20260504212138 | 25 | 196 | 4.8 | 9.7 | 0.00 | 0.00 | 0.00 | 25 | 1007.6 |
| 20260504211636 | 25 | 160 | 3.2 | 6.4 | 0.00 | 0.00 | 0.00 | 26 | 1007.7 |
| 20260504211132 | 25 | 138 | 1.6 | 6.4 | 0.00 | 0.00 | 0.00 | 24 | 1007.8 |
| 20260504210630 | 25 | 186 | 4.8 | 4.8 | 0.00 | 0.00 | 0.00 | 26 | 1007.8 |
| 20260504210126 | 25 | 69 | 4.8 | 4.8 | 0.00 | 0.00 | 0.00 | 24 | 1008.2 |
| 20260504205623 | 25 | 115 | 1.6 | 4.8 | 0.00 | 0.00 | 0.00 | 24 | 1008.0 |
| 20260504205121 | 25 | 119 | 3.2 | 6.4 | 0.00 | 0.00 | 0.00 | 23 | 1008.1 |
| 20260504204619 | 25 | 155 | 1.6 | 6.4 | 0.00 | 0.00 | 0.00 | 22 | 1008.1 |
| 20260504204118 | 25 | 75 | 8.0 | 9.7 | 0.00 | 0.00 | 0.00 | 23 | 1008.2 |
| 20260504203616 | 25 | 94 | 6.4 | 9.7 | 0.00 | 0.00 | 0.00 | 23 | 1007.8 |
| 20260504203113 | 25 | 91 | 1.6 | 9.7 | 0.00 | 0.00 | 0.00 | 24 | 1008.3 |
| 20260504202608 | 25 | 156 | 3.2 | 4.8 | 0.00 | 0.00 | 0.00 | 24 | 1008.3 |
| 20260504202105 | 24 | 150 | 1.6 | 6.4 | 0.00 | 0.00 | 0.00 | 24 | 1008.3 |
| 20260504201602 | 25 | 42 | 8.0 | 11.3 | 0.00 | 0.00 | 0.00 | 23 | 1008.4 |
| 20260504201100 | 25 | 167 | 3.2 | 9.7 | 0.00 | 0.00 | 0.00 | 25 | 1008.5 |
| 20260504200556 | 25 | 59 | 3.2 | 4.8 | 0.00 | 0.00 | 0.00 | 26 | 1008.4 |
| 20260504200053 | 25 | 48 | 3.2 | 4.8 | 0.00 | 0.00 | 0.00 | 26 | 1008.6 |
| 20260504195549 | 24 | 157 | 1.6 | 6.4 | 0.00 | 0.00 | 0.00 | 26 | 1008.6 |
| 20260504195046 | 24 | 237 | 6.4 | 11.3 | 0.00 | 0.00 | 0.00 | 25 | 1008.8 |
| 20260504194542 | 24 | 159 | 1.6 | 11.3 | 0.00 | 0.00 | 0.00 | 26 | 1008.8 |
| 20260504194038 | 25 | 164 | 1.6 | 3.2 | 0.00 | 0.00 | 0.00 | 24 | 1009.0 |
| 20260504193535 | 24 | 219 | 1.6 | 3.2 | 0.00 | 0.00 | 0.00 | 26 | 1009.0 |
| 20260504193033 | 24 | 129 | 1.6 | 6.4 | 0.00 | 0.00 | 0.00 | 29 | 1009.0 |
| 20260504192531 | 23 | 268 | 3.2 | 11.3 | 0.00 | 0.00 | 0.00 | 27 | 1009.2 |
| 20260504192029 | 23 | 58 | 3.2 | 4.8 | 0.00 | 0.00 | 0.00 | 28 | 1009.0 |
| 20260504191527 | 23 | 86 | 3.2 | 9.7 | 0.00 | 0.00 | 0.00 | 28 | 1009.0 |
| 20260504191023 | 23 | 92 | 3.2 | 4.8 | 0.00 | 0.00 | 0.00 | 27 | 1009.1 |
| 20260504190519 | 23 | 99 | 3.2 | 9.7 | 0.00 | 0.00 | 0.00 | 25 | 1009.2 |
| 20260504190015 | 23 | 150 | 1.6 | 4.8 | 0.00 | 0.00 | 0.00 | 27 | 1009.3 |
| 20260504185512 | 24 | 59 | 6.4 | 6.4 | 0.00 | 0.00 | 0.00 | 25 | 1009.4 |
| 20260504185009 | 23 | 153 | 3.2 | 6.4 | 0.00 | 0.00 | 0.00 | 28 | 1009.4 |
| 20260504184509 | 23 | 221 | 3.2 | 6.4 | 0.00 | 0.00 | 0.00 | 25 | 1009.4 |
| 20260504184005 | 23 | 182 | 1.6 | 3.2 | 0.00 | 0.00 | 0.00 | 26 | 1009.8 |
| 20260504183503 | 23 | 208 | 3.2 | 4.8 | 0.00 | 0.00 | 0.00 | 28 | 1009.8 |
| 20260504183001 | 23 | 119 | 1.6 | 11.3 | 0.00 | 0.00 | 0.00 | 27 | 1009.5 |
| 20260504182457 | 23 | 150 | 0.0 | 6.4 | 0.00 | 0.00 | 0.00 | 30 | 1009.7 |
| 20260504181955 | 23 | 124 | 1.6 | 3.2 | 0.00 | 0.00 | 0.00 | 26 | 1009.7 |
| 20260504181451 | 23 | 151 | 1.6 | 3.2 | 0.00 | 0.00 | 0.00 | 26 | 1010.1 |
| 20260504180950 | 23 | 173 | 3.2 | 4.8 | 0.00 | 0.00 | 0.00 | 28 | 1010.0 |
| 20260504180449 | 23 | 148 | 4.8 | 9.7 | 0.00 | 0.00 | 0.00 | 29 | 1009.9 |
| 20260504175947 | 23 | 155 | 3.2 | 9.7 | 0.00 | 0.00 | 0.00 | 28 | 1010.1 |
| 20260504175443 | 23 | 146 | 0.0 | 1.6 | 0.00 | 0.00 | 0.00 | 27 | 1010.0 |
| 20260504174941 | 23 | 126 | 3.2 | 9.7 | 0.00 | 0.00 | 0.00 | 29 | 1010.1 |
| 20260504174438 | 23 | 99 | 1.6 | 6.4 | 0.00 | 0.00 | 0.00 | 30 | 1010.2 |
| 20260504173936 | 22 | 145 | 1.6 | 1.6 | 0.00 | 0.00 | 0.00 | 31 | 1010.2 |
| 20260504173431 | 23 | 153 | 3.2 | 6.4 | 0.00 | 0.00 | 0.00 | 29 | 1010.2 |
| 20260504172930 | 23 | 154 | 1.6 | 9.7 | 0.00 | 0.00 | 0.00 | 29 | 1010.2 |
| 20260504172425 | 23 | 189 | 3.2 | 4.8 | 0.00 | 0.00 | 0.00 | 30 | 1010.1 |
| 20260504171922 | 22 | 148 | 1.6 | 4.8 | 0.00 | 0.00 | 0.00 | 32 | 1010.2 |
| 20260504171419 | 22 | 165 | 1.6 | 6.4 | 0.00 | 0.00 | 0.00 | 29 | 1010.3 |
| 20260504170916 | 22 | 74 | 4.8 | 4.8 | 0.00 | 0.00 | 0.00 | 29 | 1010.3 |
| 20260504170412 | 21 | 155 | 0.0 | 3.2 | 0.00 | 0.00 | 0.00 | 27 | 1010.2 |
| 20260504160332 | 20 | 182 | 3.2 | 4.8 | 0.00 | 0.00 | 0.00 | 33 | 1010.5 |
| 20260504150756 | 20 | 147 | 0.0 | 1.6 | 0.00 | 0.00 | 0.00 | 30 | 1010.6 |
| 20260504150253 | 20 | 144 | 0.0 | 0.0 | 0.00 | 0.00 | 0.00 | 32 | 1010.7 |
| 20260504141223 | 18 | 165 | 0.0 | 1.6 | 0.00 | 0.00 | 0.00 | 36 | 1010.8 |
| 20260504140719 | 17 | 137 | 1.6 | 3.2 | 0.00 | 0.00 | 0.00 | 39 | 1010.9 |
| 20260504140214 | 16 | 144 | 0.0 | 0.0 | 0.00 | 0.00 | 0.00 | 41 | 1010.9 |
| 20260504130643 | 11 | 131 | 0.0 | 3.2 | 0.00 | 0.00 | 0.00 | 48 | 1010.7 |
| 20260504130139 | 11 | 180 | 1.6 | 1.6 | 0.00 | 0.00 | 0.00 | 47 | 1010.7 |
| 20260504120104 | 12 | 162 | 1.6 | 4.8 | 0.00 | 0.00 | 0.00 | 42 | 1010.8 |
| 20260504110531 | 12 | 160 | 0.0 | 1.6 | 0.00 | 0.00 | 0.00 | 38 | 1010.8 |
| 20260504100453 | 11 | 162 | 1.6 | 3.2 | 0.00 | 0.00 | 0.00 | 44 | 1010.8 |
| 20260504081846 | 11 | 146 | 0.0 | 0.0 | 0.00 | 0.00 | 0.00 | 49 | 1009.8 |
| 20260504081343 | 12 | 156 | 0.0 | 0.0 | 0.00 | 0.00 | 0.00 | 48 | 1009.8 |
| 20260504080838 | 12 | 157 | 0.0 | 0.0 | 0.00 | 0.00 | 0.00 | 46 | 1010.0 |
| 20260504080336 | 12 | 161 | 0.0 | 0.0 | 0.00 | 0.00 | 0.00 | 46 | 1009.8 |
| 20260504070303 | 15 | 193 | 3.2 | 3.2 | 0.00 | 0.00 | 0.00 | 32 | 1009.7 |
| 20260504060224 | 16 | 137 | 0.0 | 1.6 | 0.00 | 0.00 | 0.00 | 25 | 1009.9 |
| 20260504050651 | 17 | 162 | 0.0 | 1.6 | 0.00 | 0.00 | 0.00 | 24 | 1010.2 |
| 20260504050148 | 17 | 168 | 0.0 | 1.6 | 0.00 | 0.00 | 0.00 | 23 | 1010.0 |
| 20260504045646 | 17 | 163 | 0.0 | 3.2 | 0.00 | 0.00 | 0.00 | 24 | 1010.2 |
| 20260504045146 | 17 | 177 | 0.0 | 1.6 | 0.00 | 0.00 | 0.00 | 23 | 1010.2 |
| 20260504044644 | 17 | 175 | 1.6 | 3.2 | 0.00 | 0.00 | 0.00 | 22 | 1010.3 |
| 20260504044140 | 17 | 162 | 0.0 | 1.6 | 0.00 | 0.00 | 0.00 | 23 | 1010.5 |
| 20260504043637 | 17 | 176 | 1.6 | 3.2 | 0.00 | 0.00 | 0.00 | 22 | 1010.3 |
| 20260504043135 | 17 | 164 | 0.0 | 1.6 | 0.00 | 0.00 | 0.00 | 22 | 1010.2 |
| 20260504042632 | 17 | 160 | 0.0 | 1.6 | 0.00 | 0.00 | 0.00 | 23 | 1010.2 |
| 20260504042128 | 17 | 160 | 0.0 | 1.6 | 0.00 | 0.00 | 0.00 | 23 | 1010.5 |
| 20260504041624 | 17 | 130 | 0.0 | 0.0 | 0.00 | 0.00 | 0.00 | 23 | 1010.6 |
| 20260504041121 | 17 | 156 | 0.0 | 1.6 | 0.00 | 0.00 | 0.00 | 24 | 1010.3 |
| 20260504040618 | 17 | 149 | 0.0 | 0.0 | 0.00 | 0.00 | 0.00 | 24 | 1010.3 |
| 20260504040115 | 17 | 180 | 1.6 | 1.6 | 0.00 | 0.00 | 0.00 | 24 | 1010.3 |
| 20260504035611 | 17 | 155 | 1.6 | 3.2 | 0.00 | 0.00 | 0.00 | 24 | 1010.6 |
| 20260504035108 | 17 | 208 | 1.6 | 4.8 | 0.00 | 0.00 | 0.00 | 23 | 1010.5 |
| 20260504034606 | 17 | 168 | 1.6 | 3.2 | 0.00 | 0.00 | 0.00 | 23 | 1010.2 |
| 20260504034102 | 17 | 161 | 1.6 | 1.6 | 0.00 | 0.00 | 0.00 | 23 | 1010.5 |
| 20260504033600 | 18 | 170 | 1.6 | 1.6 | 0.00 | 0.00 | 0.00 | 24 | 1010.5 |
| 20260504033057 | 18 | 173 | 1.6 | 1.6 | 0.00 | 0.00 | 0.00 | 23 | 1010.7 |
| 20260504032554 | 18 | 184 | 1.6 | 3.2 | 0.00 | 0.00 | 0.00 | 23 | 1010.3 |
| 20260504032051 | 18 | 173 | 1.6 | 1.6 | 0.00 | 0.00 | 0.00 | 24 | 1010.3 |
| 20260504031548 | 18 | 162 | 0.0 | 1.6 | 0.00 | 0.00 | 0.00 | 24 | 1010.3 |
| 20260504031044 | 18 | 169 | 1.6 | 3.2 | 0.00 | 0.00 | 0.00 | 23 | 1010.5 |
| 20260504030542 | 18 | 195 | 3.2 | 3.2 | 0.00 | 0.00 | 0.00 | 23 | 1010.5 |
| 20260504030037 | 18 | 180 | 1.6 | 3.2 | 0.00 | 0.00 | 0.00 | 24 | 1010.3 |
| 20260504025535 | 18 | 169 | 0.0 | 1.6 | 0.00 | 0.00 | 0.00 | 25 | 1010.3 |
| 20260504025031 | 18 | 160 | 0.0 | 1.6 | 0.00 | 0.00 | 0.00 | 26 | 1010.5 |
| 20260504024529 | 19 | 170 | 1.6 | 3.2 | 0.00 | 0.00 | 0.00 | 26 | 1010.3 |
| 20260504024025 | 19 | 157 | 0.0 | 1.6 | 0.00 | 0.00 | 0.00 | 25 | 1010.5 |
| 20260504023522 | 19 | 179 | 1.6 | 3.2 | 0.00 | 0.00 | 0.00 | 25 | 1010.6 |
| 20260504023018 | 20 | 201 | 0.0 | 0.0 | 0.00 | 0.00 | 0.00 | 25 | 1010.3 |
| 20260504022514 | 20 | 170 | 1.6 | 1.6 | 0.00 | 0.00 | 0.00 | 24 | 1010.1 |
| 20260504022011 | 21 | 159 | 0.0 | 1.6 | 0.00 | 0.00 | 0.00 | 24 | 1010.3 |
| 20260504021509 | 21 | 164 | 0.0 | 1.6 | 0.00 | 0.00 | 0.00 | 20 | 1010.5 |
| 20260504021005 | 21 | 161 | 0.0 | 1.6 | 0.00 | 0.00 | 0.00 | 20 | 1010.5 |
| 20260504020502 | 22 | 158 | 0.0 | 0.0 | 0.00 | 0.00 | 0.00 | 19 | 1010.5 |
| 20260504015958 | 22 | 160 | 0.0 | 1.6 | 0.00 | 0.00 | 0.00 | 18 | 1010.3 |
| 20260504015454 | 22 | 164 | 1.6 | 1.6 | 0.00 | 0.00 | 0.00 | 18 | 1010.7 |
| 20260504014950 | 22 | 158 | 0.0 | 0.0 | 0.00 | 0.00 | 0.00 | 18 | 1010.8 |
| 20260504014447 | 22 | 156 | 0.0 | 3.2 | 0.00 | 0.00 | 0.00 | 18 | 1010.8 |
| 20260504013944 | 22 | 158 | 0.0 | 1.6 | 0.00 | 0.00 | 0.00 | 17 | 1010.8 |
| 20260504013442 | 22 | 173 | 1.6 | 1.6 | 0.00 | 0.00 | 0.00 | 17 | 1010.9 |
| 20260504012938 | 22 | 173 | 0.0 | 1.6 | 0.00 | 0.00 | 0.00 | 17 | 1010.9 |
| 20260504012436 | 22 | 161 | 0.0 | 3.2 | 0.00 | 0.00 | 0.00 | 16 | 1010.9 |
| 20260504011934 | 22 | 151 | 0.0 | 1.6 | 0.00 | 0.00 | 0.00 | 17 | 1011.0 |
| 20260504011430 | 22 | 149 | 0.0 | 1.6 | 0.00 | 0.00 | 0.00 | 17 | 1010.9 |
| 20260504010926 | 22 | 155 | 0.0 | 1.6 | 0.00 | 0.00 | 0.00 | 17 | 1011.0 |
| 20260504010422 | 23 | 154 | 0.0 | 1.6 | 0.00 | 0.00 | 0.00 | 17 | 1011.1 |
| 20260504005918 | 23 | 153 | 0.0 | 1.6 | 0.00 | 0.00 | 0.00 | 16 | 1011.3 |
| 20260504005415 | 23 | 160 | 0.0 | 1.6 | 0.00 | 0.00 | 0.00 | 16 | 1011.3 |
| 20260504004913 | 23 | 144 | 1.6 | 1.6 | 0.00 | 0.00 | 0.00 | 17 | 1011.3 |
| 20260504004410 | 23 | 168 | 0.0 | 3.2 | 0.00 | 0.00 | 0.00 | 16 | 1011.3 |
| 20260504003907 | 23 | 182 | 1.6 | 4.8 | 0.00 | 0.00 | 0.00 | 17 | 1011.3 |
| 20260504003403 | 24 | 145 | 0.0 | 3.2 | 0.00 | 0.00 | 0.00 | 16 | 1011.3 |
| 20260504002900 | 25 | 188 | 4.8 | 6.4 | 0.00 | 0.00 | 0.00 | 15 | 1011.6 |
| 20260504002357 | 25 | 146 | 0.0 | 1.6 | 0.00 | 0.00 | 0.00 | 15 | 1011.5 |
| 20260504001855 | 25 | 128 | 0.0 | 4.8 | 0.00 | 0.00 | 0.00 | 15 | 1011.4 |
| 20260504001352 | 25 | 164 | 0.0 | 1.6 | 0.00 | 0.00 | 0.00 | 13 | 1011.4 |
| 20260504000848 | 25 | 207 | 3.2 | 4.8 | 0.00 | 0.00 | 0.00 | 14 | 1011.6 |
| 20260504000346 | 25 | 196 | 3.2 | 3.2 | 0.00 | 0.00 | 0.00 | 14 | 1011.5 |
| 20260503235843 | 25 | 159 | 0.0 | 1.6 | 0.00 | 0.00 | 0.00 | 15 | 1011.5 |
| 20260503235341 | 25 | 107 | 0.0 | 3.2 | 0.00 | 0.00 | 0.00 | 15 | 1011.6 |
| 20260503234838 | 25 | 204 | 3.2 | 4.8 | 0.00 | 0.00 | 0.00 | 14 | 1011.7 |
| 20260503234336 | 25 | 153 | 0.0 | 1.6 | 0.00 | 0.00 | 0.00 | 15 | 1011.6 |
| 20260503233833 | 25 | 259 | 8.0 | 9.7 | 0.00 | 0.00 | 0.00 | 14 | 1011.8 |
| 20260503233329 | 25 | 209 | 4.8 | 4.8 | 0.00 | 0.00 | 0.00 | 15 | 1011.7 |
| 20260503232825 | 25 | 213 | 4.8 | 6.4 | 0.00 | 0.00 | 0.00 | 17 | 1011.9 |
| 20260503232323 | 24 | 158 | 0.0 | 1.6 | 0.00 | 0.00 | 0.00 | 18 | 1011.9 |
| 20260503231821 | 24 | 192 | 3.2 | 4.8 | 0.00 | 0.00 | 0.00 | 15 | 1011.9 |
| 20260503231318 | 24 | 183 | 0.0 | 3.2 | 0.00 | 0.00 | 0.00 | 18 | 1011.9 |
| 20260503230813 | 24 | 203 | 3.2 | 4.8 | 0.00 | 0.00 | 0.00 | 17 | 1012.0 |
| 20260503230311 | 23 | 163 | 1.6 | 3.2 | 0.00 | 0.00 | 0.00 | 19 | 1011.9 |
| 20260503225808 | 23 | 150 | 1.6 | 6.4 | 0.00 | 0.00 | 0.00 | 18 | 1012.2 |
| 20260503225304 | 24 | 179 | 3.2 | 3.2 | 0.00 | 0.00 | 0.00 | 18 | 1012.2 |
| 20260503224800 | 24 | 192 | 1.6 | 3.2 | 0.00 | 0.00 | 0.00 | 17 | 1012.4 |
| 20260503224258 | 24 | 183 | 3.2 | 6.4 | 0.00 | 0.00 | 0.00 | 18 | 1012.3 |
| 20260503223755 | 25 | 152 | 1.6 | 4.8 | 0.00 | 0.00 | 0.00 | 20 | 1012.4 |
| 20260503223253 | 25 | 176 | 0.0 | 1.6 | 0.00 | 0.00 | 0.00 | 17 | 1012.4 |
| 20260503222749 | 25 | 217 | 1.6 | 3.2 | 0.00 | 0.00 | 0.00 | 17 | 1012.5 |
| 20260503222247 | 25 | 134 | 1.6 | 3.2 | 0.00 | 0.00 | 0.00 | 18 | 1012.5 |
| 20260503221745 | 25 | 93 | 3.2 | 4.8 | 0.00 | 0.00 | 0.00 | 14 | 1012.8 |
| 20260503221243 | 25 | 130 | 4.8 | 6.4 | 0.00 | 0.00 | 0.00 | 17 | 1012.8 |
| 20260503220739 | 25 | 132 | 0.0 | 4.8 | 0.00 | 0.00 | 0.00 | 15 | 1012.7 |
| 20260503220236 | 25 | 136 | 6.4 | 9.7 | 0.00 | 0.00 | 0.00 | 15 | 1013.0 |
| 20260503215732 | 25 | 155 | 4.8 | 6.4 | 0.00 | 0.00 | 0.00 | 16 | 1012.8 |